www.pogodaiklimat.ru

Погода и климат >> Архив погоды >> Гана >> Kete-Krachi


ПОГОДА в Kete-Krachi

  • Прогноз погоды в Kete-Krachi
  • Монитор погоды в Kete-Krachi
  • Климат города

АРХИВ ПОГОДЫ в Kete-Krachi

Время (UTC), дата Ветер
(напр.,м/с)
 
Видим.   Явления Облачность Т
(С)
Тd
(С)
f
(%)
Тe
(С)
Тes
(С)
Комфортность P
(гПа)
Po
(гПа)
Тmin
(С)
Tmax
(С)
R
(мм)
R24
(мм)
S
(см)
00 16.11 ЮЗ 2 18 км 6/0
[Ci sp]
+27.8 +25.7 88 +41 +41 опасность
перегрева
1011.0 1011.0
09 16.11 ЮЗ 1 25 км 8/8 400 м
[Cu Sc]
+29.3 +25.0 78 +42 +44 опасность
перегрева
1012.5 1013.0
12 16.11 ЮЗ 2 25 км 6/5 400 м
[Cu Sc Ci sp]
+32.2 +24.5 64 +45 +53 опасность
перегрева
1009.6 1010.0
15 16.11 ЮВ 2 25 км 4/3 540 м
[Cu med, cong Ci sp]
+35.0 +24.9 56 +48 +54 опасность
перегрева
1006.7 1007.0
18 16.11 штиль 0 18 км 6/1 540 м
[Cb cap Ac trans Ci sp]
+31.3 +26.1 74 +47 +47 опасность
перегрева
1008.0 1008.0 +35.0
21 16.11 штиль 0 16 км 5/0
[Ac trans Ci sp]
+27.7 +25.4 87 +40 +40 очень
душно
1011.1 1011.0
06 17.11 ЮЗ 1 22 км 9/4 400 м
[Sc Ac trans Ci sp]
+25.0 +23.6 92 +34 +34 очень
душно
1010.4 1010.0 +24.8
09 17.11 ЮВ 2 28 км 8/3 480 м
[Cu med, cong Ac trans]
+29.7 +24.8 75 +42 +46 опасность
перегрева
1012.3 1012.0
15 17.11 ЮЗ 2 28 км 3/3 480 м
[Cu med, cong]
+34.3 +24.5 57 +47 +53 опасность
перегрева
1006.8 1007.0
18 17.11 штиль 0 22 км 5/1 900 м
[Cb cap Ac trans Ci sp]
+31.6 +26.0 72 +47 +47 опасность
перегрева
1007.6 1008.0 +34.5
21 17.11 ЮЗ 1 18 км 4/0
[Ci sp]
+27.3 +24.9 87 +39 +39 очень
душно
1010.4 1010.0
00 18.11 ЮЗ 1 18 км 6/0
[Ci sp]
+27.7 +24.0 80 +38 +38 очень
душно
1010.8 1011.0
03 18.11 ЮЗ 2 18 км 8/0
[Cs]
+27.1 +25.8 93 +40 +40 очень
душно
1009.2 1009.0
06 18.11 ЮЗ 1 22 км 8/5 360 м
[Sc Ac trans Ci sp]
+26.3 +24.5 90 +37 +37 очень
душно
1010.0 1010.0 +24.8
15 18.11 ЮВ 2 28 км 4/4 540 м
[Cu med, cong]
+35.0 +23.5 51 +46 +50 опасность
перегрева
1007.1 1007.0
18 18.11 штиль 0 20 км 8/1 900 м
[Cb cap Ac trans Ci sp]
+31.0 +25.6 73 +46 +46 опасность
перегрева
1007.4 1007.0 +35.0
21 18.11 ЮВ 1 18 км зарница 6/3 400 м
[Cb cap Ac trans]
+28.5 +24.0 77 +40 +40 очень
душно
1010.5 1011.0
03 19.11 ЮВ 2 18 км 5/0
[Ci sp]
+26.0 +23.9 88 +36 +36 очень
душно
1009.3 1009.0
06 19.11 ЮЗ 1 22 км 6/0
[Ac trans Ci sp]
+25.3 +23.5 90 +34 +34 очень
душно
1010.2 1010.0 +25.0
09 19.11 ЮЗ 2 26 км 6/1 480 м
[Cu med, cong Ac trans Ci sp]
+29.0 +24.3 76 +41 +46 опасность
перегрева
1011.6 1012.0
18 19.11 ЮЗ 1 22 км {гроза, дождь} 8/0
[Ac trans]
+31.0 +23.5 64 +42 +42 опасность
перегрева
1007.6 1008.0 +34.5
21 19.11 ЮЗ 1 18 км 9/3 400 м
[Sc Ac trans]
+28.3 +24.2 78 +39 +39 очень
душно
1011.7 1012.0
00 20.11 ЮЗ 1 16 км 8/0
[Ac trans Ci sp]
+26.5 +23.0 81 +35 +35 очень
душно
1011.6 1012.0
03 20.11 ЮЗ 1 16 км 6/4 400 м
[Sc Ci sp]
+26.2 +24.3 89 +36 +36 очень
душно
1010.5 1011.0
18 20.11 штиль 0 18 км 9/3 540 м
[Cb cap Ac trans Cs]
+29.5 +24.8 76 +42 +42 опасность
перегрева
1010.2 1010.0 +34.0
06 21.11 штиль 0 22 км {гроза, дождь} 9/4 360 м
[Sc Ac trans]
+24.5 +23.8 96 +33 +33 очень
душно
1010.6 1011.0 +22.5 24
12 21.11 СЗ 2 25 км 8/4 480 м
[Cu med, cong Ac trans Ci sp]
+30.6 +24.8 71 +43 +50 опасность
перегрева
1010.6 1011.0
15 21.11 З 1 25 км 8/3 500 м
[Cu med, cong Ac trans Ci sp]
+32.8 +24.0 60 +45 +49 опасность
перегрева
1008.4 1008.0
18 21.11 штиль 0 18 км 9/3 540 м
[Cb cap Ac trans Cs]
+30.5 +26.5 79 +47 +47 опасность
перегрева
1009.6 1010.0 +32.8
09 22.11 ЮВ 2 25 км 5/4 400 м
[Cu Sc Ac trans Ci sp]
+29.0 +25.0 79 +42 +46 опасность
перегрева
1012.2 1012.0
12 22.11 ЮЗ 2 25 км 5/4 480 м
[Cu med, cong Ci sp]
+32.3 +25.1 66 +46 +56 опасность
перегрева
1010.5 1011.0
15 22.11 ЮВ 2 25 км 6/3 500 м
[Cb cap Ac trans Ci sp]
+34.5 +24.4 56 +47 +51 опасность
перегрева
1007.5 1008.0

 

Местоположение метеостанции Kete-Krachi (Гана): широта 7.82 долгота -0.03 высота над уровнем моря 122 м.

В архиве по умолчанию представлена погода в Kete-Krachi за последнюю неделю. Архивные данные за месяц целиком и за предыдущие месяцы, начиная с января 2011 года, Вы можете получить, выбрав интересующий диапазон дат из раскрывающегося списка и нажав кнопку "Ввод!".

Внимание! Время в таблицах - всемирное. Для получения местного времени необходимо прибавить поправку, которая в Kete-Krachi равна 1 ч.

Смотрите также архив погоды в соседних городах и на ближайших метеорологических станциях:

Погода в Atakpame (Того) (130 км)
Погода в Ho (Гана) (146 км)
Погода в Abetifi (Гана) (151 км)
Погода в Yendi (Гана) (181 км)
Погода в Sokode (Того) (183 км)
Погода в Akuse (Гана) (192 км)
Погода в Koforidua (Гана) (195 км)
Погода в Tamale (Гана) (207 км)
Погода в Akatsi (Гана) (210 км)
Погода в Kumasi (Гана) (212 км)

Пояснения к столбцам:

Ветер - указаны скорость ветра в м/с - средняя за 10 мин, порывы в срок и между сроками (в фигурных скобках) и направление, откуда дует ветер: С - северный, СВ - северо-восточный, В - восточный, ЮВ - юго-восточный, Ю - южный, ЮЗ - юго-западный, З - западный, СЗ - северо-западный.
Видимость - горизонтальная дальность видимости в метрах или километрах. При видимости от 1 до 10 км при отсутствии осадков обычно наблюдается дымка, при ухудшении видимости до 1 км и менее - туман. В сухую погоду видимость может ухудшаться дымом, пылью или мглою.
Явления - указаны атмосферные явления, наблюдавшиеся в срок или в последний час перед сроком; фигурными скобками обозначены явления, наблюдавшиеся между сроками (за 1-3 часа до срока); квадратными скобками обозначены град или гололедные отложения с указанием их диаметра в мм.
Облачность - указаны через наклонную черту общая и нижняя облачность в баллах и высота нижней границы облаков в метрах; квадратными скобками обозначены формы облаков: Ci - перистые, Cs - перисто-слоистые, Cc - перисто-кучевые, Ac - высококучевые, As - высокослоистые, Sc - слоисто-кучевые, Ns - слоисто-дождевые, Cu - кучевые, Cb - кучево-дождевые. Подробнее классификацию облаков см. в Атласе облаков (PDF).
T - Температура воздуха - температура, измеренная на высоте 2 м над землей.
Td - Температура точки росы - температура, при понижении до которой содержащийся в воздухе водяной пар достигнет насыщения.
f - Относительная влажность воздуха - влажноcть воздуха, измеренная на высоте 2 м над землей.
Te - Эффективная температура - температура, которую ощущает одетый по сезону человек в тени. Характеристика душности погоды. При расчете учитывается влияние влажности воздуха и скорости ветра на теплоощущения человека.
Tes - Эффективная температура на солнце - температура, которую ощущает человек, с поправкой на солнечный нагрев. Характеристика знойности погоды. Зависит от высоты солнца над горизонтом, облачности и скорости ветра. Ночью, в пасмурную погоду, а также при ветре 12 м/с и более поправка равна нулю.
P - Атмосферное давление - приведенное к уровню моря атмосферное давление.
Po - Атмосферное давление - измеренное на уровне метеостанции атмосферное давление.
Tmin - Минимальная температура - минимум температуры воздуха на высоте 2 м над землей.
Tmax - Максимальная температура - максимум температуры воздуха на высоте 2 м над землей.
R - Количество осадков - Количество выпавших осадков за период времени, мм. При наведении курсора мыши на число - период времени, за который выпало указанное количество осадков.
R24 - Количество осадков - Количество выпавших осадков за 24 часа, мм.
S - Снежный покров - Высота снежного покрова, см. При наведении курсора мыши на число - состояние снежного покрова и степень покрытия местности в баллах.